Starlink 35178

operational
NORAD ID: 65610 Int'l Des: 2025-207 Owner: SPXS Country: US Constellation: starlink
NOTLE

Über Starlink 35178

Beschreibung wird geladen...

Live-Position

3D-Globus wird geladen...

Nächste Überflüge

Höhenverlauf

Altitude vs Time

uPlot chart will show altitude changes over time

Zweizeiliger Elementsatz

1 65610U 25207U 25354.58336806 -.02538490 00000-0 -10125+0 0 9993
2 65610 97.6028 60.5994 0001228 59.9592 235.2379 15.28772924 5886
Epoch: 20. Dez. 2025 • Age: 8 hours

Aktueller Status

Höhe 491.7 km
Geschwindigkeit 7.62 km/s
Subsatellitenpunkt 46.52°N, 12.07°W
Startdatum 13. Sept. 2025
Alter 0.2 years
Typ internet

Technische Details

Klassifizierung Payload
Masse 575.00 kg
Trockenmasse 530.00 kg
Gesamtmasse 575.00 kg
Länge 0.30 m
Durchmesser 4.10 m
Spannweite 29.00 m
Form Box + pan
Hersteller SPXS
Bus-Typ Starlink V2MO
Phasenstatus In Orbit
Besitzer/Staat SPXS/US

Große Konstellationen

Loading constellations...